Retour au catalogue

STARLINK-32573

ActifCommunicationsVLEO
NORAD 61725·PAYLOAD·🇺🇸 United States

Lancé Oct 30, 2024 depuis Cape Canaveral Space Force Station

Loading…

Prochains Passages (prochaines 24 heures)

TLE

FraisSource: CelesTrak SupGP

Époque: Sep 15, 2026, 03:30 UTC

1 61725C 24196U   26258.14631944  .00013773  00000+0  40691-3 0  2589
2 61725  53.1590 298.9339 0001447  85.6016  38.2588 15.34384519    19

Suivez STARLINK-32573 en temps réel avec AllMySat

Download on the App Store